Total_Precipitation_Accumulation
0.40 0.29 0.33 0.39 0.43 0.51 0.70 0.61 0.58 0.34 0.28 0.30 0.30 0.33 0.35 0.32 0.32 0.29 0.28 0.28 0.30 0.31 0.34 0.40 0.44 0.49 0.53 0.58 0.61 0.65 0.66 0.63 0.61 0.62 0.70 0.76 0.69 0.70 0.72 0.75 0.86 0.86 0.81 0.77
0.37 0.25 0.28 0.38 0.39 0.41 0.45 0.46 0.46 0.34 0.31 0.25 0.27 0.29 0.27 0.23 0.21 0.19 0.18 0.18 0.19 0.20 0.22 0.24 0.29 0.35 0.40 0.45 0.50 0.58 0.61 0.62 0.61 0.60 0.63 0.72 0.70 0.68 0.69 0.72 0.81 0.88 0.92 0.90
0.39 0.23 0.30 0.40 0.34 0.37 0.42 0.41 0.42 0.47 0.38 0.25 0.23 0.23 0.22 0.20 0.17 0.15 0.13 0.13 0.13 0.13 0.15 0.16 0.19 0.24 0.29 0.33 0.38 0.45 0.53 0.58 0.61 0.63 0.66 0.72 0.73 0.73 0.77 0.84 0.90 0.91 0.97 1.00
0.40 0.26 0.33 0.27 0.18 0.23 0.32 0.32 0.29 0.33 0.28 0.23 0.21 0.20 0.20 0.19 0.16 0.12 0.11 0.12 0.14 0.14 0.14 0.14 0.16 0.17 0.19 0.24 0.30 0.34 0.40 0.48 0.52 0.57 0.60 0.63 0.70 0.76 0.81 0.86 0.92 0.96 0.98 0.98
0.43 0.28 0.20 0.17 0.17 0.23 0.32 0.36 0.27 0.24 0.20 0.20 0.18 0.15 0.17 0.16 0.15 0.14 0.11 0.11 0.12 0.12 0.13 0.14 0.14 0.14 0.16 0.21 0.27 0.31 0.38 0.45 0.50 0.58 0.61 0.65 0.71 0.74 0.78 0.84 0.88 0.85 0.86 0.88
0.43 0.35 0.23 0.17 0.11 0.13 0.26 0.41 0.23 0.19 0.17 0.18 0.16 0.20 0.18 0.13 0.13 0.14 0.12 0.11 0.12 0.12 0.13 0.15 0.17 0.19 0.21 0.24 0.28 0.31 0.38 0.46 0.49 0.57 0.67 0.70 0.73 0.72 0.70 0.75 0.81 0.76 0.72 0.71
0.36 0.31 0.14 0.10 0.07 0.10 0.31 0.41 0.20 0.16 0.15 0.14 0.14 0.18 0.15 0.12 0.11 0.11 0.12 0.11 0.12 0.13 0.15 0.19 0.25 0.27 0.28 0.31 0.35 0.37 0.38 0.43 0.43 0.47 0.54 0.57 0.59 0.60 0.60 0.62 0.64 0.60 0.57 0.58
0.17 0.24 0.17 0.10 0.09 0.18 0.22 0.14 0.10 0.09 0.10 0.10 0.13 0.13 0.14 0.13 0.12 0.12 0.15 0.15 0.14 0.15 0.17 0.19 0.26 0.32 0.33 0.32 0.34 0.33 0.33 0.37 0.38 0.41 0.44 0.46 0.48 0.51 0.53 0.51 0.51 0.49 0.46 0.47
0.12 0.14 0.13 0.11 0.13 0.14 0.11 0.08 0.07 0.07 0.08 0.08 0.12 0.13 0.14 0.14 0.11 0.10 0.13 0.15 0.14 0.14 0.15 0.17 0.20 0.27 0.34 0.34 0.32 0.32 0.33 0.35 0.35 0.34 0.36 0.40 0.40 0.42 0.43 0.41 0.41 0.40 0.39 0.38
0.12 0.10 0.09 0.10 0.10 0.10 0.10 0.08 0.07 0.06 0.05 0.05 0.09 0.11 0.13 0.13 0.12 0.11 0.11 0.13 0.13 0.13 0.15 0.17 0.19 0.20 0.24 0.27 0.28 0.29 0.29 0.30 0.33 0.34 0.32 0.31 0.33 0.35 0.38 0.39 0.39 0.38 0.38 0.36
0.14 0.10 0.09 0.09 0.09 0.08 0.07 0.06 0.05 0.04 0.04 0.05 0.08 0.10 0.12 0.14 0.14 0.13 0.14 0.13 0.15 0.14 0.15 0.16 0.16 0.17 0.17 0.18 0.20 0.23 0.26 0.26 0.27 0.28 0.29 0.29 0.28 0.31 0.35 0.37 0.42 0.46 0.45 0.44
0.14 0.09 0.10 0.10 0.07 0.06 0.05 0.05 0.04 0.04 0.04 0.05 0.07 0.08 0.08 0.08 0.11 0.14 0.14 0.14 0.15 0.14 0.14 0.15 0.15 0.16 0.16 0.16 0.18 0.20 0.22 0.23 0.25 0.26 0.26 0.26 0.27 0.26 0.30 0.33 0.38 0.43 0.47 0.49
0.10 0.07 0.06 0.06 0.05 0.05 0.04 0.03 0.03 0.04 0.06 0.08 0.07 0.07 0.07 0.07 0.07 0.09 0.12 0.13 0.14 0.14 0.15 0.14 0.14 0.15 0.15 0.16 0.16 0.17 0.18 0.20 0.21 0.22 0.24 0.26 0.27 0.27 0.27 0.27 0.29 0.33 0.39 0.46
0.07 0.07 0.06 0.04 0.04 0.04 0.04 0.05 0.05 0.06 0.07 0.06 0.05 0.07 0.09 0.08 0.08 0.09 0.13 0.14 0.14 0.14 0.15 0.16 0.16 0.15 0.14 0.16 0.17 0.16 0.16 0.19 0.20 0.19 0.21 0.24 0.27 0.29 0.30 0.30 0.28 0.28 0.32 0.40
0.07 0.07 0.06 0.04 0.04 0.04 0.06 0.08 0.09 0.08 0.06 0.04 0.05 0.06 0.07 0.09 0.10 0.12 0.13 0.14 0.14 0.14 0.14 0.16 0.17 0.18 0.17 0.17 0.17 0.17 0.16 0.16 0.18 0.19 0.20 0.23 0.25 0.28 0.30 0.31 0.31 0.29 0.28 0.32
0.08 0.07 0.06 0.05 0.06 0.08 0.10 0.10 0.07 0.06 0.06 0.06 0.06 0.07 0.07 0.08 0.09 0.11 0.12 0.12 0.15 0.17 0.17 0.16 0.16 0.16 0.15 0.16 0.17 0.17 0.16 0.19 0.20 0.19 0.20 0.21 0.22 0.25 0.27 0.29 0.31 0.31 0.30 0.31
0.09 0.09 0.07 0.07 0.08 0.09 0.08 0.06 0.06 0.06 0.07 0.08 0.08 0.08 0.08 0.08 0.09 0.10 0.11 0.13 0.15 0.18 0.19 0.18 0.17 0.16 0.15 0.15 0.16 0.17 0.17 0.18 0.21 0.20 0.18 0.19 0.21 0.23 0.26 0.29 0.30 0.30 0.29 0.34
0.09 0.09 0.10 0.10 0.10 0.09 0.07 0.07 0.07 0.08 0.09 0.09 0.09 0.08 0.09 0.10 0.11 0.11 0.13 0.14 0.15 0.18 0.18 0.17 0.16 0.16 0.14 0.14 0.15 0.16 0.17 0.19 0.20 0.20 0.19 0.21 0.24 0.26 0.28 0.30 0.29 0.28 0.27 0.30
0.12 0.10 0.10 0.11 0.10 0.09 0.09 0.10 0.10 0.10 0.10 0.09 0.09 0.09 0.09 0.10 0.11 0.12 0.13 0.15 0.15 0.16 0.16 0.15 0.19 0.15 0.12 0.14 0.19 0.17 0.18 0.19 0.20 0.20 0.22 0.27 0.28 0.25 0.26 0.28 0.28 0.27 0.27 0.27
0.13 0.13 0.12 0.12 0.11 0.11 0.12 0.12 0.11 0.11 0.10 0.10 0.11 0.11 0.11 0.10 0.11 0.11 0.12 0.14 0.15 0.15 0.15 0.16 0.16 0.14 0.14 0.17 0.22 0.18 0.18 0.19 0.21 0.22 0.24 0.26 0.27 0.26 0.26 0.27 0.27 0.27 0.28 0.28
0.14 0.14 0.15 0.15 0.15 0.15 0.16 0.16 0.16 0.15 0.14 0.13 0.13 0.13 0.12 0.11 0.11 0.11 0.12 0.13 0.12 0.12 0.13 0.16 0.15 0.15 0.18 0.22 0.24 0.19 0.19 0.22 0.23 0.23 0.24 0.25 0.26 0.27 0.27 0.26 0.27 0.28 0.28 0.29
0.15 0.16 0.17 0.17 0.17 0.17 0.17 0.17 0.18 0.18 0.17 0.16 0.15 0.14 0.13 0.13 0.12 0.11 0.11 0.12 0.13 0.16 0.15 0.13 0.14 0.19 0.24 0.26 0.22 0.20 0.22 0.23 0.24 0.24 0.24 0.25 0.26 0.27 0.26 0.26 0.27 0.27 0.28 0.28
0.15 0.16 0.17 0.19 0.19 0.17 0.16 0.16 0.17 0.17 0.16 0.16 0.15 0.14 0.14 0.13 0.13 0.13 0.13 0.12 0.12 0.16 0.15 0.14 0.19 0.25 0.27 0.22 0.19 0.20 0.22 0.23 0.24 0.24 0.24 0.25 0.25 0.27 0.29 0.29 0.28 0.28 0.28 0.27
0.12 0.13 0.15 0.16 0.17 0.18 0.18 0.17 0.16 0.16 0.16 0.16 0.15 0.15 0.15 0.15 0.13 0.12 0.12 0.13 0.14 0.15 0.14 0.16 0.21 0.24 0.24 0.21 0.20 0.21 0.22 0.23 0.23 0.24 0.24 0.25 0.25 0.27 0.28 0.28 0.27 0.26 0.25 0.25
0.12 0.13 0.15 0.16 0.17 0.18 0.19 0.17 0.16 0.16 0.16 0.16 0.15 0.14 0.14 0.14 0.15 0.14 0.12 0.12 0.14 0.15 0.15 0.16 0.19 0.21 0.21 0.20 0.22 0.23 0.23 0.24 0.25 0.26 0.25 0.25 0.25 0.26 0.27 0.27 0.28 0.27 0.25 0.24
0.12 0.12 0.13 0.15 0.17 0.19 0.19 0.18 0.17 0.18 0.18 0.18 0.17 0.15 0.15 0.14 0.14 0.14 0.13 0.13 0.15 0.17 0.17 0.17 0.18 0.19 0.19 0.20 0.21 0.22 0.23 0.23 0.24 0.23 0.22 0.23 0.24 0.26 0.26 0.26 0.25 0.25 0.24 0.24
0.09 0.11 0.12 0.14 0.16 0.18 0.19 0.18 0.19 0.20 0.20 0.20 0.20 0.18 0.17 0.17 0.16 0.16 0.15 0.15 0.16 0.17 0.17 0.18 0.19 0.20 0.20 0.20 0.21 0.21 0.21 0.21 0.21 0.22 0.22 0.24 0.24 0.25 0.24 0.24 0.24 0.24 0.23 0.22